TimeCDT,TemperatureF,Dew PointF,Humidity,Sea Level PressureIn,VisibilityMPH,Wind Direction,Wind SpeedMPH,Gust SpeedMPH,PrecipitationIn,Events,Conditions,WindDirDegrees,DateUTC
12:08 AM,24.8,12.2,59,30.27,10.0,North,5.8,-,N/A,,Clear,350,2013-04-10 05:08:00
12:27 AM,24.8,12.2,59,30.26,10.0,North,5.8,-,N/A,,Clear,360,2013-04-10 05:27:00
12:48 AM,24.8,12.2,59,30.26,10.0,North,8.1,-,N/A,,Clear,360,2013-04-10 05:48:00
1:08 AM,24.8,12.2,59,30.27,10.0,North,6.9,-,N/A,,Clear,360,2013-04-10 06:08:00
1:27 AM,24.8,12.2,59,30.28,10.0,North,4.6,-,N/A,,Unknown,360,2013-04-10 06:27:00
1:47 AM,23.0,12.2,63,30.28,10.0,North,3.5,-,N/A,,Unknown,10,2013-04-10 06:47:00
2:08 AM,23.0,14.0,68,30.28,10.0,North,4.6,-,N/A,,Unknown,10,2013-04-10 07:08:00
2:27 AM,23.0,14.0,68,30.30,10.0,Calm,Calm,-,N/A,,Clear,0,2013-04-10 07:27:00
2:48 AM,21.2,14.0,74,30.30,10.0,Calm,Calm,-,N/A,,Unknown,0,2013-04-10 07:48:00
3:07 AM,21.2,14.0,74,30.31,10.0,Calm,Calm,-,N/A,,Unknown,0,2013-04-10 08:07:00
3:27 AM,19.4,14.0,80,30.31,10.0,West,3.5,-,N/A,,Unknown,270,2013-04-10 08:27:00
7:08 AM,17.6,14.0,86,30.21,10.0,Calm,Calm,-,N/A,,Unknown,0,2013-04-10 12:08:00
7:27 AM,19.4,14.0,80,30.24,10.0,Calm,Calm,-,N/A,,Unknown,0,2013-04-10 12:27:00
7:47 AM,19.4,14.0,80,30.27,10.0,Calm,Calm,-,N/A,,Unknown,0,2013-04-10 12:47:00
8:08 AM,19.4,14.0,80,30.26,10.0,Calm,Calm,-,N/A,,Unknown,0,2013-04-10 13:08:00
8:27 AM,23.0,15.8,74,30.27,10.0,Calm,Calm,-,N/A,,Unknown,0,2013-04-10 13:27:00
8:47 AM,24.8,15.8,69,30.27,10.0,Calm,Calm,-,N/A,,Unknown,0,2013-04-10 13:47:00
9:08 AM,26.6,15.8,64,30.27,10.0,NE,3.5,-,N/A,,Unknown,50,2013-04-10 14:08:00
9:27 AM,26.6,17.6,69,30.27,10.0,West,3.5,-,N/A,,Unknown,260,2013-04-10 14:27:00
9:47 AM,28.4,17.6,64,30.26,10.0,Calm,Calm,-,N/A,,Unknown,0,2013-04-10 14:47:00
10:08 AM,28.4,17.6,64,30.27,10.0,Calm,Calm,-,N/A,,Unknown,0,2013-04-10 15:08:00
10:27 AM,30.2,19.4,64,30.26,10.0,Calm,Calm,-,N/A,,Unknown,0,2013-04-10 15:27:00
10:47 AM,33.8,17.6,52,30.25,10.0,NNE,9.2,-,N/A,,Unknown,20,2013-04-10 15:47:00
11:08 AM,35.6,15.8,44,30.25,10.0,NE,5.8,-,N/A,,Unknown,40,2013-04-10 16:08:00
11:27 AM,37.4,17.6,45,30.25,10.0,NNE,5.8,-,N/A,,Unknown,30,2013-04-10 16:27:00
11:47 AM,37.4,15.8,41,30.24,10.0,NE,9.2,-,N/A,,Unknown,40,2013-04-10 16:47:00
12:08 PM,39.2,15.8,39,30.23,10.0,NNE,10.4,-,N/A,,Unknown,30,2013-04-10 17:08:00
12:27 PM,39.2,15.8,39,30.22,10.0,NE,9.2,17.3,N/A,,Clear,40,2013-04-10 17:27:00
12:47 PM,39.2,15.8,39,30.21,10.0,NE,11.5,-,N/A,,Clear,50,2013-04-10 17:47:00
1:08 PM,39.2,15.8,39,30.19,10.0,NE,9.2,-,N/A,,Clear,50,2013-04-10 18:08:00
1:48 PM,41.0,15.8,36,30.19,10.0,NE,8.1,-,N/A,,Clear,40,2013-04-10 18:48:00
2:07 PM,41.0,15.8,36,30.19,10.0,NNE,10.4,18.4,N/A,,Clear,20,2013-04-10 19:07:00
2:27 PM,41.0,15.8,36,30.18,10.0,NE,11.5,16.1,N/A,,Clear,40,2013-04-10 19:27:00
2:48 PM,42.8,15.8,34,30.19,10.0,NE,10.4,-,N/A,,Clear,40,2013-04-10 19:48:00
3:07 PM,42.8,15.8,34,30.19,10.0,NNE,8.1,-,N/A,,Clear,30,2013-04-10 20:07:00
3:28 PM,42.8,15.8,34,30.18,10.0,NE,9.2,-,N/A,,Clear,50,2013-04-10 20:28:00
3:48 PM,42.8,15.8,34,30.16,10.0,NE,15.0,-,N/A,,Clear,40,2013-04-10 20:48:00
4:07 PM,42.8,15.8,34,30.15,10.0,NNE,10.4,-,N/A,,Clear,30,2013-04-10 21:07:00
4:28 PM,44.6,17.6,34,30.15,10.0,NE,9.2,-,N/A,,Clear,40,2013-04-10 21:28:00
4:47 PM,42.8,17.6,36,30.14,10.0,NE,9.2,16.1,N/A,,Clear,40,2013-04-10 21:47:00
5:07 PM,42.8,17.6,36,30.14,10.0,NE,10.4,-,N/A,,Clear,50,2013-04-10 22:07:00
5:28 PM,42.8,15.8,34,30.13,10.0,ENE,10.4,-,N/A,,Clear,60,2013-04-10 22:28:00
5:47 PM,42.8,17.6,36,30.11,10.0,NE,11.5,-,N/A,,Clear,50,2013-04-10 22:47:00
6:07 PM,42.8,17.6,36,30.12,10.0,ENE,6.9,-,N/A,,Clear,60,2013-04-10 23:07:00
6:28 PM,41.0,15.8,36,30.12,10.0,ENE,8.1,-,N/A,,Clear,60,2013-04-10 23:28:00
6:47 PM,39.2,17.6,42,30.13,10.0,NE,6.9,-,N/A,,Clear,40,2013-04-10 23:47:00
7:07 PM,39.2,17.6,42,30.12,10.0,NE,6.9,-,N/A,,Clear,40,2013-04-11 00:07:00
7:28 PM,39.2,17.6,42,30.10,10.0,NE,8.1,-,N/A,,Clear,40,2013-04-11 00:28:00
7:47 PM,37.4,17.6,45,30.11,10.0,NE,8.1,-,N/A,,Clear,40,2013-04-11 00:47:00
8:07 PM,37.4,17.6,45,30.11,10.0,NE,9.2,-,N/A,,Clear,40,2013-04-11 01:07:00
8:28 PM,35.6,19.4,52,30.12,10.0,NE,5.8,-,N/A,,Clear,50,2013-04-11 01:28:00
8:47 PM,35.6,17.6,48,30.11,10.0,NE,6.9,-,N/A,,Clear,40,2013-04-11 01:47:00
9:07 PM,35.6,17.6,48,30.11,10.0,NE,6.9,-,N/A,,Clear,50,2013-04-11 02:07:00
9:28 PM,35.6,15.8,44,30.09,10.0,NNE,5.8,-,N/A,,Clear,30,2013-04-11 02:28:00
9:47 PM,33.8,15.8,48,30.09,10.0,NE,8.1,-,N/A,,Clear,40,2013-04-11 02:47:00
10:07 PM,33.8,15.8,48,30.08,10.0,NE,9.2,16.1,N/A,,Clear,50,2013-04-11 03:07:00
10:28 PM,33.8,15.8,48,30.07,10.0,NE,9.2,-,N/A,,Clear,50,2013-04-11 03:28:00
10:47 PM,33.8,15.8,48,30.07,10.0,NE,10.4,-,N/A,,Clear,50,2013-04-11 03:47:00
11:07 PM,32.0,15.8,51,30.07,10.0,ENE,11.5,-,N/A,,Clear,60,2013-04-11 04:07:00
11:28 PM,32.0,15.8,51,30.06,10.0,NE,9.2,-,N/A,,Clear,50,2013-04-11 04:28:00
11:47 PM,32.0,14.0,48,30.08,10.0,NE,9.2,-,N/A,,Clear,50,2013-04-11 04:47:00